Find Starlink 1114

NORAD ID: 44927 Int'l Des: 2020-001 Owner: SPXS Country: US Constellation: starlink operational
LEOCIRCULAR

現在のビュー

3D地球を読み込み中...

About Starlink 1114

Starlink 1114 (NORAD 44927) is a starlink constellation satellite (v1.0) launched Jan 7, 2020 by SPXS of US. It operates in LEO, CIRCULAR orbit with a mass of 260.00 kg.

次回通過

Passes for default location (London). Set your location on the main map for personalized predictions.

高度履歴

Loading altitude history...

軌道要素

1 44927U 20001P 26266.64077416 .00100448 00000-0 42939-3 0 9993
2 44927 53.0340 73.9445 0002466 175.1508 184.9539 15.84398964371142
Epoch: Sep 23, 2026 • Age: 7 hours

現在のステータス

高度 336.3 km
遠地点 / 近地点 N/A
速度 7.71 km/s
衛星直下点 -52.12°S, 16.33°E
打ち上げ日 Jan 7, 2020
運用期間 6.7 years
タイプ internet

技術仕様

分類 Payload
質量 260.00 kg
乾燥質量 248.00 kg
長さ 0.20 m
スパン 9.00 m
形状 ? Box + pan
製造者 SPXS
バスタイプ Starlink
フェーズステータス In Orbit
所有者/国 SPXS/US

Most Searched